User: anonymous   Login
Location: Newark
(49.3808°N, 3.1844°E)
Time: 20:56:17
(UTC+00:00)
Language:

Explorer 11/Cluster Stage 4 - Orbit

View from above orbital plane
View from above orbital plane
View from above satellite
View from above satellite

Ground track
Ground track

The orbit data is extracted from the following two-line orbital elements,

1   107U 61013A   19321.33677773  .00000582  00000-0  57365-4 0  9993
2   107  28.7911 304.9858 0546972 309.6403  45.7115 14.08853517935690
Epoch (UTC): 17 November 2019 08:04:57
Eccentricity: 0.0546972
inclination: 28.7911°
perigee height: 467 km
apogee height: 1259 km
right ascension of ascending node: 304.9858°
argument of perigee: 309.6403°
revolutions per day: 14.08853517
mean anomaly at epoch: 45.7115°
orbit number at epoch: 93569

The dashed part of the orbit path shows where the satellite is in the earth's shadow,  

DLR